Flag for Russia Weather past 2 weeks in Syktyvkar, Russia

34 °F

Snow flurries. Broken clouds.

Feels Like: 29 °F
Forecast: 28 / 35 °F
Wind: 6 mph from Southwest

Location: Syktyvkar Airport

Current Time: Nov 28, 2015 at 1:24:10 PM

Latest Report: Nov 28, 2015 at 1:00 PM

Visibility: 3 mi

Pressure: 29.47 "Hg

Humidity: 93%

Dew point: 32 °F

Location of SyktyvkarLocation

Historic Weather in Syktyvkar — Graph


Syktyvkar temperature yesterday

Maximum temperature yesterday: 28 °F (at 11:30 PM)
Minimum temperature yesterday: 19 °F (at 1:30 PM)
Average temperature yesterday: 22 °F

Past Weeks' High & Low Weather Summary

High34 °F (Nov 28, 11:00 AM)100% (Nov 13, 3:30 PM)30.27 "Hg (Nov 13, 3:30 PM)
Low9 °F (Nov 14, 7:30 PM)74% (Nov 25, 12:30 PM)29.33 "Hg (Nov 27, 11:00 PM)
Average21 °F86%29.94 "Hg
* Reported Nov 13 12:00 Noon — Nov 28 12:00 Noon, Syktyvkar, Weather by CustomWeather, © 2015

Note: Actual official high and low records may vary slightly from our data, if they occured in-between our weather recording intervals... More about our weather records


Syktyvkar weather history for previous 24 hours

Time TempWeatherWind HumidityBarometerVisibility
12:00 PM
Sat, Nov 28
34 °FSnow flurries. Broken clouds.6 mph93%29.47 "Hg2 mi
11:30 AM34 °FBroken clouds.8 mph87%29.45 "Hg6 mi
11:00 AM34 °FBroken clouds.10 mph87%29.45 "Hg6 mi
9:00 AM32 °FSnow flurries. Partly cloudy.6 mph93%29.45 "HgN/A
8:30 AM32 °FSnow flurries. Partly cloudy.6 mph93%29.42 "HgN/A
7:30 AM30 °FSnow flurries. Partly cloudy.8 mph93%29.42 "Hg3 mi
7:00 AM32 °FSnow flurries. Partly cloudy.6 mph87%29.42 "Hg3 mi
6:30 AM32 °FMostly cloudy.6 mph87%29.42 "HgN/A
6:00 AM32 °FMostly cloudy.6 mph87%29.42 "HgN/A
5:30 AM32 °FMostly cloudy.6 mph87%29.42 "HgN/A
5:00 AM32 °FPassing clouds.6 mph87%29.42 "HgN/A
4:30 AM32 °FPassing clouds.8 mph87%29.39 "HgN/A
4:00 AM32 °FPassing clouds.6 mph87%29.39 "HgN/A
3:30 AM32 °FPassing clouds.8 mph87%29.39 "HgN/A
2:30 AM32 °FPassing clouds.8 mph80%29.39 "HgN/A
2:00 AM32 °FPassing clouds.8 mph80%29.36 "HgN/A
1:30 AM30 °FPartly cloudy.8 mph93%29.36 "HgN/A
1:00 AM30 °FPartly cloudy.8 mph86%29.36 "HgN/A
12:30 AM30 °FSnow flurries. Partly cloudy.10 mph86%29.36 "HgN/A
12:00 AM30 °FSnow flurries. Partly cloudy.10 mph86%29.36 "HgN/A
11:30 PM
Fri, Nov 27
28 °FSnow flurries. Partly cloudy.8 mph93%29.36 "HgN/A
11:00 PM27 °FSnow flurries. Partly cloudy.6 mph93%29.33 "Hg4 mi
10:00 PM25 °FSnow flurries. Partly cloudy.8 mph93%29.36 "Hg2 mi
9:30 PM25 °FSnow flurries. Partly cloudy.8 mph93%29.36 "Hg4 mi
9:00 PM23 °FSnow flurries. Partly cloudy.8 mph93%29.36 "Hg2 mi
8:30 PM23 °FSnow flurries. Partly cloudy.8 mph93%29.36 "Hg4 mi
8:00 PM23 °FSnow flurries. Partly cloudy.8 mph86%29.36 "Hg5 mi
7:30 PM21 °FSnow showers. Partly cloudy.8 mph93%29.39 "Hg1 mi
7:00 PM21 °FHeavy snow. Ice fog.10 mph93%29.39 "Hg1 mi
6:30 PM21 °FSnow flurries. Passing clouds.10 mph86%29.39 "Hg2 mi
6:00 PM21 °FClear.13 mph80%29.39 "Hg10 mi
5:30 PM21 °FClear.10 mph80%29.42 "Hg10 mi
5:00 PM21 °FClear.10 mph80%29.45 "Hg10 mi
4:30 PM19 °FClear.10 mph86%29.47 "Hg10 mi
4:00 PM19 °FPassing clouds.10 mph86%29.50 "HgN/A
3:30 PM19 °FPassing clouds.10 mph86%29.50 "HgN/A
3:00 PM19 °FPassing clouds.10 mph86%29.53 "Hg6 mi
2:30 PM19 °FScattered clouds.8 mph86%29.56 "Hg6 mi
2:00 PM19 °FLow clouds.10 mph93%29.56 "Hg4 mi
1:30 PM19 °FLow clouds.10 mph93%29.59 "Hg4 mi
1:00 PM21 °FLow clouds.10 mph86%29.62 "Hg4 mi
Weather by CustomWeather, © 2015

See weather overviewHow to use our weather pages